Location: �quirre
(50.4736°N, 2.2351°E)
Time: 08:39:36
(UTC+00:00)

Cosmos 1655 Rocket - Pass Details

Date: 07 August 2020
Orbit: 970 x 1007 km, 83.0° (Epoch: 20 September)

Event Time Altitude Azimuth Distance (km) Brightness Sun altitude
Rises 02:30:13 0° 348° (NNW) 3,709 7.6 -15.2°
Reaches altitude 10° 02:32:47 10° 345° (NNW) 2,751 6.9 -15.0°
Maximum altitude 02:38:58 63° 267° (W) 1,088 4.1 -14.3°
Enters shadow 02:44:31 13° 188° (S) 2,505 5.7 -13.8°
